Regional Weather Roundup
Issued by NWS

Home | Current Version | Previous Version | Graphics & Text | Print | Product List | Glossary On
Versions: 1 2 3 4 5 6 7 8 9 10 11 12 13 14 15 16 17 18 19 20 21 22 23 24 25 26 27 28 29 30 31 32 33 34 35 36 37 38 39 40 41 42 43 44 45 46 47 48 49 50
000
ASUS43 KMKX 020911
RWRWI

WISCONSIN REGIONAL WEATHER ROUNDUP
NATIONAL WEATHER SERVICE MILWAUKEE/SULLIVAN WI
400 AM CDT TUE SEP 02 2014

NOTE: "FAIR" INDICATES FEW OR NO CLOUDS BELOW 12,000 FEET WITH NO
SIGNIFICANT WEATHER AND/OR OBSTRUCTIONS TO VISIBILITY.

WIZ001-002-006>008-014>016-023>028-021000-
NORTHWEST WISCONSIN

CITY           SKY/WX    TMP DP  RH WIND       PRES   REMARKS
SUPERIOR ARPT  MOCLDY    54  52  94 SW7       29.79R
ASHLAND        PTCLDY    57  53  86 SW8       29.79R
HAYWARD        PTCLDY    51  50  96 CALM      29.82R
SIREN          MOCLDY    54  52  94 CALM      29.83R
RICE LAKE      CLOUDY    56  55  94 CALM      29.84R
LADYSMITH      PTCLDY    55  54  95 CALM      29.84S
EAU CLAIRE     MOCLDY    59  58  96 S6        29.82S
MENOMONIE      PTSUNNY   59  57  94 CALM      29.83S
NEW RICHMOND   LGT RAIN  61  59  94 CALM      29.82S
OSCEOLA        CLOUDY    58  58 100 CALM      29.84S
$$

WIZ003>005-009-010-017-018-021000-
NORTH CENTRAL WISCONSIN

CITY           SKY/WX    TMP DP  RH WIND       PRES   REMARKS
WOODRUFF       CLOUDY    52  50  93 CALM      29.82F
RHINELANDER    CLEAR     49  49 100 W5        29.83F
EAGLE RIVER      N/A     52  52 100 CALM      29.82S FOG
LAND O LAKES   FOG       45  45 100 CALM      29.82F VSB 1/2
PHILLIPS       MOCLDY    53  52  98 CALM      29.82S
TOMAHAWK       PTCLDY    46  45  97 CALM      29.84S
MEDFORD        PTCLDY    53  53  99 CALM      29.84S
MERRILL        FOG       48  48 100 CALM      29.84S VSB 3/4
$$

WIZ029-030-035-036-043>047-021000-
CENTRAL WISCONSIN

CITY           SKY/WX    TMP DP  RH WIND       PRES   REMARKS
WAUSAU         CLEAR     54  53  97 CALM      29.82F
MOSINEE        CLEAR     54  54 100 CALM      29.85S
MARSHFIELD     CLEAR     55  54  96 SW5       29.84S FOG
STEVENS POINT  CLEAR     54  53  99 CALM      29.85S
WAUPACA        CLEAR     57  55  95 CALM      29.84S
WAUTOMA        CLEAR     55  54  97 CALM      29.85S
WISC RAPIDS    FOG       54  54 100 CALM      29.85F VSB 1/2
CAMP DOUGLAS   CLEAR     53  53 100 SE5       29.85R
$$

WIZ011>013-019>022-031-037>040-048>050-021000-
NORTHEAST WISCONSIN

CITY           SKY/WX    TMP DP  RH WIND       PRES   REMARKS
ANTIGO         FOG       49  49 100 CALM      29.84S VSB 1
STURGEON BAY   CLEAR     59  55  88 SW5       29.82R
GREEN BAY      CLEAR     56  55  97 CALM      29.83R
MANITOWOC      CLEAR     61  59  93 W3        29.84R
APPLETON       CLEAR     57  57 100 W8        29.84S
CLINTONVILLE   CLEAR     54  54 100 SW5       29.84R
OSHKOSH        CLEAR     62  59  90 SW5       29.84R
$$

WIZ032>034-041-042-053>061-021000-
SOUTHWEST WISCONSIN

CITY           SKY/WX    TMP DP  RH WIND       PRES   REMARKS
LA CROSSE      CLEAR     62  60  93 S5        29.84S
SPARTA         MOCLDY    53  52  97 CALM      29.86R
VIROQUA        FAIR      56  56 100 CALM      29.87F
BOSCOBEL       FOG       60  59  96 S5        29.87S VSB 1/4
PRAIRIE DU CHI CLEAR     57  56  94 E3        29.86F
PLATTEVILLE    FAIR      60  59  96 CALM      29.89S
$$

WIZ056-057-062-063-064-067-068-021000-
SOUTH CENTRAL WISCONSIN

CITY           SKY/WX    TMP DP  RH WIND       PRES   REMARKS
BARABOO/DELLS  CLEAR     57  56  95 CALM      29.86S
LONE ROCK      FOG       63  59  87 CALM      29.87S VSB 1/4
WATERTOWN      PTCLDY    57  57 100 CALM      29.86F
MADISON        CLEAR     59  57  93 CALM      29.86S
MIDDLETON      FAIR      60  60 100 CALM      29.87F
MONROE         PTCLDY    63  61  94 W7        29.88S
JANESVILLE     FOG       63  61  94 CALM      29.87S VSB 1/4
$$

WIZ051-052-058>065-066-070>072-021000-
SOUTHEAST WISCONSIN

CITY           SKY/WX    TMP DP  RH WIND       PRES   REMARKS
MILWAUKEE      PTCLDY    67  63  87 W5        29.86R
WAUKESHA       CLEAR     59  59 100 CALM      29.88R
MILWAUKEE/TIMM CLEAR     63  59  88 CALM      29.87R
RACINE         PTCLDY    66  63  90 W5        29.88R
BURLINGTON     PTCLDY    59  59 100 CALM      29.87S FOG
KENOSHA        FOG       63  62  97 W3        29.87S VSB 1
FOND DU LAC    CLEAR     58  55  90 S5        29.86R
SHEBOYGAN      CLEAR     58  57  97 W5        29.85R
WEST BEND      FOG       59  57  94 CALM      29.86S VSB 1/2
JUNEAU         FOG       58  58 100 S5        29.88R VSB 1/4
$$

LSZ147-162-021000-
LAKE SUPERIOR

STATION/POSITION TIME  TEMP    WIND        PRES    WAVE
                       AIR SEA DIR/SP/G            HT/PER
                 (UTC) (F)     (DEG/KT/KT) (MB)    (FT/S)
W MID LAKE BUOY  0850   59 57  220/  8/ 10 1007.1R   1/ 4
DEVILS ISLAND    0900   62     240/ 15/ 18 1007.8R
PORT WING        0800   58     180/  6/  8 1008.5R
SAXON HARBOR     0800   59     190/  5/  9 1008.5R
$$

LMZ867-665-643>646-021000-
LAKE MICHIGAN

STATION/POSITION TIME  TEMP    WIND        PRES    WAVE
                       AIR SEA DIR/SP/G            HT/PER
                 (UTC) (F)     (DEG/KT/KT) (MB)    (FT/S)
N MID LAKE BUOY  0850   65 65  250/  8/ 10 1007.9F   2/ 6
NORTHPORT PIER   0800   63     270/  3/  6 1008.5F
KEWAUNEE LAKESHO 0800   61     290/  4/  5 1008.6F
SHEBOYGAN LAKESH 0900   63 50  260/  8/  9 1010.7R
ATWATER BUOY     0800   68     260/  6/  6 1011.9R
MILWAUKEE LAKESH 0800   69     280/  4/  5   N/A
S MID LAKE BUOY  0850   70 70  260/  6/  8 1010.7R   1/ 4
KENOSHA   LAKESH 0900   69     270/  7/  8 1011.2R
$$

TC  - TEMPERATURE IN CELSIUS
VSB - VISIBILITY IN STATUTE MILES
WCI - WIND CHILL INDEX
HX  - HEAT INDEX




USA.gov is the U.S. government's official web portal to all federal, state and local government web resources and services.